Weather in Oktyabrskoye

Russia / Ulyanovsk Oblast     52°44′49″N   47°08′00″E
temp.,
°C
wind,
m/s
gust,
m/s
humid.,
%
clouds,
%
prec.,
mm/h
press.,
hPa
HPBL,
m
23 october, sat
sat2301:00+10wsw615846 0.0 1009465
04:00+8wsw613865 0.0 1010372
07:00+7wsw3119010 0.0 1011210
10:00+10wsw6127126 0.0 1012590
13:00+13wsw8164699 0.0 10131556
16:00+13wsw6124398 0.0 10131404
19:00+11w5947100 0.0 1013446
22:00+8sw2789100 3.0 1013319
24 october, sun
sun2401:00+8ssw4109398 4.4 1011515
04:00+6nw398120 4.6 1012365
07:00+4w5108723 0.0 1013332
10:00+6w610715 0.0 1014634
13:00+8w685664 0.0 10151128
16:00+8w57545 0.0 10151259
19:00+4w347112 0.0 101677
22:00+5sw2668100 0.0 1016226
25 october, mon
mon2501:00+3wsw3771100 0.0 1015175
04:00+3w488699 0.0 1015445
07:00+2wnw4896100 0.1 1016413
10:00+1nw7108229 0.3 1018619
13:00+2nnw71071100 0.0 10201088
16:00+2nnw81169100 0.0 10221010
19:00+1nnw6106676 0.0 10261108
22:00−1nnw5117396 0.0 1027362
26 october, tue
tue2601:00−2nw3578100 0.0 1029134
04:00−2wnw2476100 0.0 103095
07:00−3w36795 0.0 1030110
10:00+1wsw59555 0.0 1029426
13:00+4wsw794375 0.0 1028740
16:00+5wsw711475 0.0 1026808
19:00+2wsw6135716 0.0 1026412
22:00+2w6136085 0.0 1026384
27 october, wed
wed2701:00+1w6146314 0.0 1026328
04:000wsw5136590 0.0 1026292
07:000wsw513675 0.0 1026270
10:00+3wsw6135355 0.0 1026383
13:00+7wsw7123861 0.0 1024642
16:00+8sw6113892 0.0 1023742
19:00+4sw61446100 0.0 1023373
22:00+3sw61546100 0.0 1021410